GW3251 Weather Reports


Display with metric or nautical units.
time (UTC)temp
F
wind
direction
speed
MPH
gust
MPH
rain 1hr
in
rain 24hr
in
rain mn
in
humidity
%
barometer
mb
20260504230538 80 0 1.0 17.0 0.00 0.00 0.00 67 1009.9
20260504230049 80 133 0.0 15.0 0.00 0.00 0.00 67 1010.0
20260504225539 80 154 0.0 12.0 0.00 0.00 0.00 69 1010.1
20260504225040 80 0 0.0 12.0 0.00 0.00 0.00 67 1010.0
20260504224600 80 177 1.0 12.0 0.00 0.00 0.00 67 1010.0
20260504224038 81 0 1.0 11.0 0.00 0.00 0.00 66 1010.0
20260504223538 81 0 0.0 10.0 0.00 0.00 0.00 66 1010.2
20260504223054 81 198 0.0 10.0 0.00 0.00 0.00 65 1010.2
20260504222539 81 0 0.0 10.0 0.00 0.00 0.00 65 1010.0
20260504222037 81 184 1.0 10.0 0.00 0.00 0.00 65 1010.0
20260504221604 81 0 0.0 13.0 0.00 0.00 0.00 67 1010.3
20260504221038 82 0 1.0 14.0 0.00 0.00 0.00 65 1010.3
20260504220538 82 0 0.0 14.0 0.00 0.00 0.00 64 1010.3
20260504220053 83 0 1.0 13.0 0.00 0.00 0.00 63 1010.3
20260504215538 82 0 1.0 12.0 0.00 0.00 0.00 65 1010.4
20260504215038 80 185 0.0 10.0 0.00 0.00 0.00 67 1010.4
20260504214553 80 0 0.0 10.0 0.00 0.00 0.00 66 1010.6
20260504214038 80 177 0.0 11.0 0.00 0.00 0.00 67 1010.6
20260504213538 80 189 1.0 11.0 0.00 0.00 0.00 68 1010.8
20260504213101 80 155 1.0 11.0 0.00 0.00 0.00 66 1010.9
20260504212538 81 0 0.0 16.0 0.00 0.00 0.00 64 1011.0
20260504212041 82 209 0.0 16.0 0.00 0.00 0.00 64 1010.9
20260504211550 83 0 0.0 12.0 0.00 0.00 0.00 65 1011.2
20260504211038 82 0 0.0 14.0 0.00 0.00 0.00 65 1011.2
20260504210538 82 0 4.0 14.0 0.00 0.00 0.00 61 1011.3
20260504210057 84 178 1.0 13.0 0.00 0.00 0.00 64 1011.3
20260504205539 83 0 1.0 12.0 0.00 0.00 0.00 63 1011.6
20260504205041 81 0 1.0 12.0 0.00 0.00 0.00 64 1011.7
20260504204622 82 0 0.0 9.0 0.00 0.00 0.00 63 1011.8
20260504204037 82 0 0.0 9.0 0.00 0.00 0.00 63 1011.8
20260504203542 82 0 0.0 13.0 0.00 0.00 0.00 64 1011.9
20260504203047 82 0 0.0 13.0 0.00 0.00 0.00 62 1011.9
20260504202538 83 0 1.0 12.0 0.00 0.00 0.00 63 1011.9
20260504202042 83 0 0.0 10.0 0.00 0.00 0.00 61 1012.1
20260504201545 81 0 1.0 12.0 0.00 0.00 0.00 60 1012.1
20260504201039 82 0 2.0 12.0 0.00 0.00 0.00 63 1012.1
20260504200538 81 0 2.0 12.0 0.00 0.00 0.00 61 1012.3
20260504200050 82 0 1.0 12.0 0.00 0.00 0.00 61 1012.4
20260504195538 83 236 0.0 13.0 0.00 0.00 0.00 60 1012.5
20260504195041 84 0 0.0 15.0 0.00 0.00 0.00 59 1012.7
20260504194552 83 0 1.0 15.0 0.00 0.00 0.00 62 1012.8
20260504194038 82 110 0.0 11.0 0.00 0.00 0.00 62 1012.9
20260504193537 81 0 1.0 11.0 0.00 0.00 0.00 60 1012.9
20260504193046 83 0 0.0 14.0 0.00 0.00 0.00 60 1012.9
20260504192538 82 0 0.0 16.0 0.00 0.00 0.00 62 1013.0
20260504192038 82 0 1.0 16.0 0.00 0.00 0.00 61 1012.9
20260504191549 84 0 0.0 14.0 0.00 0.00 0.00 60 1012.9
20260504191038 82 0 0.0 17.0 0.00 0.00 0.00 64 1013.0
20260504190538 81 0 2.0 17.0 0.00 0.00 0.00 62 1013.1
20260504190056 81 0 0.0 12.0 0.00 0.00 0.00 60 1013.3
20260504185538 83 0 3.0 13.0 0.00 0.00 0.00 56 1013.5
20260504185038 84 0 1.0 13.0 0.00 0.00 0.00 58 1013.4
20260504184601 83 215 1.0 10.0 0.00 0.00 0.00 60 1013.7
20260504184038 82 0 1.0 10.0 0.00 0.00 0.00 60 1013.7
20260504183538 82 163 1.0 10.0 0.00 0.00 0.00 59 1013.7
20260504183056 82 0 1.0 10.0 0.00 0.00 0.00 58 1013.8
20260504182541 81 180 1.0 12.0 0.00 0.00 0.00 61 1013.9
20260504182038 81 195 1.0 12.0 0.00 0.00 0.00 61 1014.0
20260504181551 82 0 4.0 12.0 0.00 0.00 0.00 59 1013.9
20260504181038 82 0 0.0 12.0 0.00 0.00 0.00 61 1014.2
20260504180537 82 163 1.0 12.0 0.00 0.00 0.00 58 1014.2
20260504180051 82 0 0.0 12.0 0.00 0.00 0.00 62 1014.2
20260504175537 82 192 3.0 14.0 0.00 0.00 0.00 62 1014.2
20260504175042 81 0 0.0 14.0 0.00 0.00 0.00 62 1014.2
20260504174549 80 217 2.0 14.0 0.00 0.00 0.00 62 1014.3
20260504174038 81 0 2.0 12.0 0.00 0.00 0.00 59 1014.4
20260504173538 80 0 0.0 14.0 0.00 0.00 0.00 62 1014.3
20260504173048 79 0 0.0 14.0 0.00 0.00 0.00 62 1014.5
20260504172538 79 0 3.0 14.0 0.00 0.00 0.00 63 1014.5
20260504172038 80 190 3.0 16.0 0.00 0.00 0.00 62 1014.6
20260504171549 80 0 3.0 16.0 0.00 0.00 0.00 62 1014.6
20260504171038 79 189 2.0 14.0 0.00 0.00 0.00 61 1014.7
20260504170538 79 225 1.0 13.0 0.00 0.00 0.00 62 1014.7
20260504151039 74 0 2.0 14.0 0.00 0.00 0.00 70 1015.6
20260504150540 73 0 0.0 12.0 0.00 0.00 0.00 71 1015.6
20260504141037 68 0 1.0 11.0 0.00 0.00 0.00 77 1015.7
20260504140538 67 0 1.0 11.0 0.00 0.00 0.00 78 1015.7
20260504130538 59 0 0.0 0.0 0.00 0.00 0.00 87 1015.7
20260504110538 55 0 0.0 0.0 0.00 0.00 0.00 90 1015.2
20260504100537 56 0 0.0 0.0 0.00 0.00 0.00 89 1015.5
20260504081553 58 0 0.0 0.0 0.00 0.00 0.00 85 1015.8
20260504081037 58 0 0.0 0.0 0.00 0.00 0.00 85 1016.0
20260504080538 59 0 0.0 0.0 0.00 0.00 0.00 85 1016.1
20260504050538 62 0 0.0 0.0 0.00 0.00 0.00 80 1018.0
20260504045538 62 0 0.0 1.0 0.00 0.00 0.00 79 1018.1
20260504045038 62 0 0.0 1.0 0.00 0.00 0.00 78 1018.1
20260504044549 62 0 0.0 8.0 0.00 0.00 0.00 78 1018.0
20260504044038 62 0 0.0 8.0 0.00 0.00 0.00 78 1018.2
20260504043539 63 0 0.0 7.0 0.00 0.00 0.00 78 1018.2
20260504043050 63 0 0.0 7.0 0.00 0.00 0.00 78 1018.2
20260504042539 63 0 0.0 7.0 0.00 0.00 0.00 78 1018.2
20260504042039 63 0 0.0 6.0 0.00 0.00 0.00 77 1018.3
20260504041549 63 188 0.0 5.0 0.00 0.00 0.00 77 1018.4
20260504041035 63 0 0.0 7.0 0.00 0.00 0.00 78 1018.4
20260504040537 63 0 0.0 7.0 0.00 0.00 0.00 77 1018.3
20260504040058 63 0 0.0 3.0 0.00 0.00 0.00 77 1018.3
20260504035540 63 0 0.0 6.0 0.00 0.00 0.00 77 1018.3
20260504035036 63 0 0.0 6.0 0.00 0.00 0.00 77 1018.3
20260504034606 63 0 0.0 6.0 0.00 0.00 0.00 77 1018.3
20260504034040 63 0 0.0 6.0 0.00 0.00 0.00 76 1018.3
20260504033539 63 0 0.0 6.0 0.00 0.00 0.00 77 1018.2
20260504033049 63 0 0.0 6.0 0.00 0.00 0.00 77 1018.2
20260504032539 62 0 0.0 6.0 0.00 0.00 0.00 77 1018.2
20260504032040 62 0 0.0 8.0 0.00 0.00 0.00 78 1018.0
20260504031555 61 0 0.0 8.0 0.00 0.00 0.00 80 1018.1
20260504031038 60 0 0.0 0.0 0.00 0.00 0.00 83 1018.0
20260504030540 59 0 0.0 0.0 0.00 0.00 0.00 85 1017.9
20260504030050 59 0 0.0 0.0 0.00 0.00 0.00 85 1017.9
20260504025540 59 0 0.0 0.0 0.00 0.00 0.00 85 1017.9
20260504025040 59 0 0.0 0.0 0.00 0.00 0.00 85 1017.9
20260504024549 59 0 0.0 0.0 0.00 0.00 0.00 85 1017.8
20260504024037 59 0 0.0 0.0 0.00 0.00 0.00 85 1017.8
20260504023539 60 0 0.0 0.0 0.00 0.00 0.00 85 1017.6
20260504023047 60 0 0.0 0.0 0.00 0.00 0.00 84 1017.5
20260504022537 61 0 0.0 0.0 0.00 0.00 0.00 83 1017.5
20260504022040 61 0 0.0 0.0 0.00 0.00 0.00 83 1017.5
20260504021548 61 0 0.0 0.0 0.00 0.00 0.00 83 1017.4
20260504021037 61 0 0.0 0.0 0.00 0.00 0.00 82 1017.5
20260504020540 61 0 0.0 0.0 0.00 0.00 0.00 81 1017.5
20260504020050 62 0 0.0 0.0 0.00 0.00 0.00 81 1017.7
20260504015540 62 0 0.0 0.0 0.00 0.00 0.00 79 1017.5
20260504015036 62 0 0.0 0.0 0.00 0.00 0.00 79 1017.5
20260504014606 63 0 0.0 0.0 0.00 0.00 0.00 78 1017.5
20260504014037 63 0 0.0 0.0 0.00 0.00 0.00 78 1017.5
20260504013536 64 0 0.0 0.0 0.00 0.00 0.00 77 1017.4
20260504013052 64 0 0.0 0.0 0.00 0.00 0.00 74 1017.4
20260504012539 65 0 0.0 0.0 0.00 0.00 0.00 74 1017.3
20260504012039 65 0 0.0 0.0 0.00 0.00 0.00 73 1017.3
20260504011546 66 0 0.0 0.0 0.00 0.00 0.00 72 1017.3
20260504011039 66 0 0.0 0.0 0.00 0.00 0.00 72 1017.3
20260504010539 66 0 0.0 0.0 0.00 0.00 0.00 71 1017.3
20260504010059 67 0 0.0 0.0 0.00 0.00 0.00 70 1017.3
20260504005540 67 0 0.0 0.0 0.00 0.00 0.00 71 1017.5
20260504005036 68 0 0.0 0.0 0.00 0.00 0.00 68 1017.4
20260504004552 68 0 0.0 0.0 0.00 0.00 0.00 69 1017.4
20260504004037 69 0 0.0 0.0 0.00 0.00 0.00 67 1017.4
20260504003536 69 0 0.0 0.0 0.00 0.00 0.00 65 1017.5
20260504003058 70 0 0.0 0.0 0.00 0.00 0.00 66 1017.5
20260504002536 70 0 0.0 0.0 0.00 0.00 0.00 62 1017.5
20260504002039 71 0 0.0 0.0 0.00 0.00 0.00 62 1017.6
20260504001547 72 0 0.0 0.0 0.00 0.00 0.00 59 1017.6
20260504001040 73 0 0.0 0.0 0.00 0.00 0.00 57 1017.7
20260504000540 73 0 0.0 0.0 0.00 0.00 0.00 55 1017.7
20260503235543 74 0 0.0 7.0 0.00 0.00 0.00 54 1017.7
20260503235039 74 0 0.0 7.0 0.00 0.00 0.00 54 1017.7
20260503234605 74 0 0.0 6.0 0.00 0.00 0.00 53 1017.7
20260503234036 74 0 0.0 6.0 0.00 0.00 0.00 53 1017.8
20260503233537 75 0 0.0 5.0 0.00 0.00 0.00 52 1017.9
20260503233048 75 0 0.0 8.0 0.00 0.00 0.00 50 1017.7
20260503232541 75 0 0.0 8.0 0.00 0.00 0.00 48 1017.9
20260503232036 76 0 0.0 7.0 0.00 0.00 0.00 49 1017.9
20260503231552 76 186 0.0 9.0 0.00 0.00 0.00 47 1017.8
20260503231040 77 0 0.0 11.0 0.00 0.00 0.00 47 1017.9